[[{"header":{"parameterUnit":"m.s-1","parameterCategory":1,"la1":30.2991,"la2":30.254,"lo1":-89.0895,"lo2":-89.0444,"dy":0.0017,"dx":0.0017,"nx":28,"ny":28,"refTime":"2023-09-20T09:00:00:Z","depth":0,"parameterNumber":2,"parameterNumberName":"U-component_of_WINDS"},"data":[0,0,0,0,0,0,0,0,0,0,0,0,0,0,0,0,0,0,0,0,0,0,0,0,0,0,0,0,0,0,0,0,0,0,0,0,0,0,0,0,0,0,0,0,0,0,0,0,0,0,0,0,0,0,0,0,0,0,-4.5372,-4.5372,0,-4.5343,-4.5343,-4.5343,-4.5185,-4.5181,-4.5178,-4.5174,-4.5145,-4.5148,-4.5151,0,0,0,0,0,0,0,0,0,0,0,0,0,-4.5293,-4.5295,-4.5372,-4.5372,-4.5372,-4.5343,-4.5343,-4.5342,-4.5186,-4.5181,-4.5177,-4.5172,-4.5144,-4.5148,-4.5151,0,0,0,0,0,0,0,0,0,0,0,0,0,-4.5302,-4.5296,-4.5372,-4.529,-4.5282,-4.5343,-4.5343,-4.5342,-4.5187,-4.5181,-4.5175,-4.517,-4.5143,-4.5147,-4.5151,-4.529,0,0,-4.5164,-4.5166,0,0,0,0,0,0,0,0,-4.5302,-4.5305,-4.5302,-4.5296,-4.5287,-4.5262,-4.5304,-4.5325,-4.5188,-4.5223,-4.5174,-4.5167,-4.5189,-4.5189,-4.5196,-4.5289,-4.5287,-4.5164,-4.5167,-4.5169,-4.517,0,0,0,0,0,0,0,-4.5302,-4.5306,-4.5361,-4.5303,-4.5293,-4.5255,-4.525,-4.5307,-4.5238,-4.522,-4.5208,-4.5207,-4.5184,-4.5192,-4.5194,-4.5287,-4.5164,-4.5168,-4.5171,-4.5172,-4.5491,-4.5497,0,0,0,0,0,0,-4.5312,-4.5306,-4.5362,-4.536,-4.5281,-4.5261,-4.5255,-4.5276,-4.5237,-4.5225,-4.5212,-4.5199,-4.5188,-4.5189,-4.5192,-4.535,-4.5169,-4.5173,-4.5175,-4.5485,-4.5492,-4.5499,0,0,0,0,0,0,-4.5311,-4.5319,-4.5363,-4.533,-4.5333,-4.5268,-4.5293,-4.5278,-4.5286,-4.5231,-4.5218,-4.5233,-4.5184,-4.5187,-4.5266,-4.5347,-4.5174,-4.5178,-4.5478,-4.5487,-4.5496,-4.5668,0,0,0,0,0,0,-4.531,-4.5319,-4.5371,-4.5332,-4.5335,-4.5437,-4.5297,-4.5282,-4.5294,-4.5278,-4.5247,-4.5237,-4.5179,-4.5261,-4.5271,-4.535,-4.5181,-4.547,-4.5482,-4.5493,-4.5655,-4.5682,-4.5705,0,0,0,0,0,-4.5307,-4.5421,-4.5374,-4.5382,-4.5398,-4.5442,-4.5444,-4.5375,-4.5301,-4.5352,-4.5317,-4.5238,-4.5338,-4.5271,-4.528,-4.5361,-4.5465,-4.5479,-4.5492,-4.5644,-4.5677,-4.5705,0,0,0,0,0,0,-4.5471,-4.5414,-4.5362,-4.5466,-4.546,-4.5416,-4.5478,-4.5412,-4.5427,-4.5411,-4.5326,-4.532,-4.5413,-4.5395,-4.5322,-4.5493,-4.5388,-4.5404,-4.55,-4.5531,-4.5556,-4.5557,-4.5185,0,0,0,0,0,-4.5519,-4.556,-4.5508,-4.5606,-4.5605,-4.5543,-4.556,-4.5507,-4.5497,-4.5494,-4.5464,-4.5458,-4.5488,-4.5509,-4.5534,-4.5653,-4.5644,-4.5714,-4.5739,-4.576,-4.5774,-4.5835,-4.5865,-4.5543,-4.5543,-4.5543,0,0,-4.5619,-4.5593,-4.5624,-4.5638,-4.5627,-4.567,-4.5542,-4.5593,-4.5625,-4.5502,-4.5574,-4.5554,-4.5541,-4.5642,-4.5684,-4.563,-4.5861,-4.5777,-4.5794,-4.5797,-4.5852,-4.5882,-4.5909,-4.5552,-4.5551,-4.5549,0,0,-4.5822,-4.5808,-4.5886,-4.5878,-4.5863,-4.5821,-4.5841,-4.5807,-4.5787,-4.5859,-4.5768,-4.5805,-4.5858,-4.5853,-4.5857,-4.6061,-4.5989,-4.6072,-4.6202,-4.6262,-4.6287,-4.6309,-4.638,-4.6407,-4.6087,-4.6087,-4.6087,0,-4.5948,-4.6009,-4.5935,-4.5993,-4.6001,-4.5893,-4.5971,-4.5968,-4.5962,-4.5971,-4.5911,-4.5975,-4.5959,-4.6056,-4.6106,-4.6114,-4.6133,-4.6073,-4.629,-4.6311,-4.633,-4.6397,-4.6424,-4.6097,-4.6096,-4.6095,-4.6094,0,-4.6164,-4.6208,-4.6274,-4.627,-4.6287,-4.6355,-4.6291,-4.6317,-4.6265,-4.6229,-4.6304,-4.6282,-4.6299,-4.632,-4.6269,-4.641,-4.6376,-4.6305,-4.6196,-4.6372,-4.6433,-4.6458,-4.6111,-4.6108,-4.6105,-4.6102,0,0,-4.6466,-4.6422,-4.6447,-4.6443,-4.642,-4.6453,-4.6518,-4.6534,-4.6557,-4.6559,-4.6609,-4.6658,-4.6591,-4.6597,-4.6545,-4.6599,-4.6759,-4.652,-4.6518,-4.6563,-4.6911,-4.6963,-4.6994,-4.6713,-4.6717,-4.6721,-4.6911,0,-4.6658,-4.6763,-4.6699,-4.6814,-4.6854,-4.6753,-4.6808,-4.68,-4.677,-4.68,-4.6766,-4.6801,-4.6712,-4.6714,-4.6763,-4.6729,-4.6827,-4.6715,-4.6758,-4.676,-4.6761,-4.7026,-4.708,-4.7261,-4.6935,-4.6939,-4.6942,0,-4.6895,-4.6906,-4.7025,-4.6994,-4.7008,-4.7059,-4.7069,-4.71,-4.7089,-4.7063,-4.7071,-4.7006,-4.7066,-4.6963,-4.7045,-4.697,-4.6984,-4.6971,-4.6976,-4.6975,-4.6859,-4.7029,-4.7317,-4.7343,-4.6979,-4.6976,-4.6973,0,-4.7101,-4.7145,-4.7221,-4.7223,-4.7189,-4.7227,-4.7215,-4.7199,-4.7213,-4.7223,-4.7231,-4.7249,-4.7258,-4.7274,-4.7216,-4.7146,-4.7305,-4.7197,-4.7284,-4.7286,-4.7319,-4.7317,-4.7611,-4.7335,-4.7334,-4.7334,-4.7333,0,-4.732,-4.7396,-4.7313,-4.736,-4.7442,-4.7369,-4.7453,-4.743,-4.7417,-4.7458,-4.7374,-4.7414,-4.7336,-4.7368,-4.7324,-4.7398,-4.7404,-4.7384,-4.737,-4.7389,-4.7392,-4.7395,-4.738,-4.7341,-4.7339,-4.7338,-4.7337,0,-4.7561,-4.7509,-4.7585,-4.7548,-4.754,-4.7602,-4.757,-4.7612,-4.7577,-4.763,-4.7638,-4.7583,-4.7617,-4.7562,-4.759,-4.756,-4.7662,-4.7631,-4.7665,-4.7655,-4.7744,-4.7736,-4.8047,-4.8084,-4.7788,-4.7791,-4.7793,0,-4.7703,-4.7759,-4.7728,-4.7749,-4.7741,-4.7777,-4.7791,-4.7722,-4.7741,-4.7734,-4.7777,-4.7804,-4.7821,-4.7881,-4.7843,-4.7865,-4.7831,-4.794,-4.7834,-4.7851,-4.783,-4.7826,-4.7831,-4.796,-4.7964,-4.7967,-4.7969,0,-4.7959,-4.7931,-4.7954,-4.797,-4.7989,-4.7998,-4.8,-4.8023,-4.795,-4.7976,-4.8009,-4.8023,-4.8052,-4.8079,-4.8091,-4.8079,-4.8012,-4.8003,-4.8024,-4.8042,-4.8059,-4.8048,-4.7721,-4.7995,-4.7993,-4.7991,-4.7989,-4.7988,-4.8152,-4.8197,-4.8182,-4.8211,-4.8206,-4.8211,-4.8248,-4.8218,-4.8245,-4.8262,-4.8221,-4.8265,-4.8254,-4.8263,-4.8258,-4.8292,-4.8244,-4.8275,-4.8282,-4.829,-4.8303,-4.8057,-4.8294,-4.8293,-4.8293,-4.8292,-4.8291,0,-4.8402,-4.8388,-4.8416,-4.8422,-4.8445,-4.8381,-4.8381,-4.8405,-4.8444,-4.844,-4.8459,-4.8498,-4.8525,-4.8491,-4.8512,-4.8545,-4.8515,-4.8553,-4.8548,-4.8546,-4.8346,-4.8324,-4.8577,-4.8577,-4.8577,-4.8577,-4.8576,-4.8576,-4.8534,-4.8606,-4.8576,-4.8645,-4.863,-4.8672,-4.8677,-4.8681,-4.8677,-4.8724,-4.8746,-4.8724,-4.8708,-4.8727,-4.8749,-4.8738,-4.8749,-4.8797,-4.8776,-4.8588,-4.856,-4.8533,-4.8513,-4.8801,-4.8801,-4.8972,-4.8974,-4.8975]},{"header":{"parameterUnit":"m.s-1","parameterCategory":1,"la1":30.2991,"la2":30.254,"lo1":-89.0895,"lo2":-89.0444,"dy":0.0017,"dx":0.0017,"nx":28,"ny":28,"refTime":"2023-09-20T09:00:00:Z","depth":0,"parameterNumber":3,"parameterNumberName":"V-component_of_WINDS"},"data":[0,0,0,0,0,0,0,0,0,0,0,0,0,0,0,0,0,0,0,0,0,0,0,0,0,0,0,0,0,0,0,0,0,0,0,0,0,0,0,0,0,0,0,0,0,0,0,0,0,0,0,0,0,0,0,0,0,0,1.491,1.491,0,1.4917,1.4917,1.4917,1.4955,1.4955,1.4956,1.4957,1.496,1.4959,1.4958,0,0,0,0,0,0,0,0,0,0,0,0,0,1.4924,1.4923,1.491,1.491,1.491,1.4917,1.4917,1.4917,1.4954,1.4956,1.4957,1.4958,1.496,1.4959,1.4958,0,0,0,0,0,0,0,0,0,0,0,0,0,1.4923,1.4923,1.491,1.4929,1.4931,1.4917,1.4917,1.4917,1.4954,1.4956,1.4957,1.4958,1.496,1.4959,1.4958,1.4924,0,0,1.4955,1.4954,0,0,0,0,0,0,0,0,1.4923,1.4922,1.4926,1.4928,1.493,1.4936,1.4923,1.4919,1.4954,1.4945,1.4957,1.4959,1.4951,1.495,1.4949,1.4924,1.4924,1.4954,1.4954,1.4953,1.4953,0,0,0,0,0,0,0,1.4923,1.4922,1.4912,1.4926,1.4929,1.4937,1.4938,1.4923,1.494,1.4946,1.4949,1.495,1.4952,1.495,1.4949,1.4924,1.4954,1.4953,1.4953,1.4952,1.4872,1.4871,0,0,0,0,0,0,1.4921,1.4922,1.4912,1.4913,1.493,1.4935,1.4937,1.4933,1.494,1.4943,1.4948,1.4951,1.4951,1.495,1.4949,1.491,1.4953,1.4952,1.4952,1.4874,1.4872,1.487,0,0,0,0,0,0,1.4921,1.492,1.4912,1.4918,1.4918,1.4934,1.4929,1.4932,1.493,1.4942,1.4945,1.4943,1.4952,1.4951,1.493,1.491,1.4952,1.4951,1.4875,1.4873,1.4871,1.483,0,0,0,0,0,0,1.4921,1.4919,1.4907,1.4918,1.4917,1.4894,1.4928,1.4931,1.4929,1.4933,1.4938,1.494,1.4953,1.4932,1.4929,1.4909,1.495,1.4877,1.4874,1.4872,1.4833,1.4827,1.4821,0,0,0,0,0,1.4922,1.4894,1.4907,1.4905,1.4903,1.4893,1.4892,1.4909,1.4927,1.4914,1.4922,1.494,1.4913,1.4929,1.4927,1.4906,1.4879,1.4875,1.4872,1.4836,1.4828,1.4821,0,0,0,0,0,0,1.4879,1.4896,1.491,1.4885,1.4888,1.4899,1.4884,1.49,1.4896,1.4899,1.4919,1.492,1.4896,1.4899,1.4917,1.4874,1.4899,1.4895,1.4872,1.4865,1.4859,1.4858,1.4949,0,0,0,0,0,1.4868,1.4859,1.4874,1.4851,1.4851,1.4867,1.4863,1.4877,1.4879,1.4879,1.4886,1.4886,1.4878,1.4872,1.4865,1.4835,1.4836,1.4819,1.4813,1.4808,1.4804,1.4788,1.4781,1.486,1.486,1.486,0,0,1.4842,1.485,1.4843,1.4842,1.4846,1.4835,1.4868,1.4855,1.4848,1.4877,1.4858,1.4863,1.4865,1.484,1.4829,1.4841,1.4783,1.4804,1.48,1.4798,1.4784,1.4776,1.477,1.4858,1.4858,1.4858,0,0,1.4791,1.4797,1.4778,1.4781,1.4787,1.4798,1.4793,1.4803,1.4807,1.479,1.4812,1.4802,1.4788,1.4788,1.4786,1.4737,1.4753,1.4734,1.4702,1.4686,1.468,1.4674,1.4656,1.4649,1.473,1.473,1.473,0,1.4758,1.4745,1.4766,1.4753,1.4751,1.478,1.4761,1.4762,1.4764,1.4762,1.4777,1.476,1.4763,1.4738,1.4726,1.4724,1.4719,1.4733,1.4679,1.4674,1.4669,1.4652,1.4645,1.4728,1.4728,1.4728,1.4729,0,1.4704,1.4695,1.4679,1.4682,1.4679,1.4663,1.468,1.4675,1.4688,1.4698,1.4679,1.4684,1.4679,1.4674,1.4687,1.4651,1.4659,1.4676,1.4702,1.4659,1.4643,1.4636,1.4724,1.4725,1.4726,1.4727,0,0,1.4625,1.4641,1.4635,1.4637,1.4645,1.4638,1.4623,1.462,1.4614,1.4615,1.4602,1.459,1.4607,1.4605,1.4617,1.4604,1.4564,1.4623,1.4623,1.4611,1.4524,1.451,1.4502,1.4575,1.4574,1.4573,1.4524,0,1.4575,1.4551,1.457,1.4543,1.4534,1.4562,1.4548,1.4552,1.456,1.4553,1.4562,1.4553,1.4576,1.4575,1.4563,1.4571,1.4546,1.4575,1.4562,1.4561,1.4559,1.4494,1.4478,1.4431,1.4517,1.4516,1.4516,0,1.4513,1.4513,1.4485,1.4497,1.4493,1.4481,1.448,1.4474,1.4478,1.4485,1.4484,1.45,1.4485,1.4512,1.4491,1.451,1.4506,1.4509,1.4508,1.4506,1.4535,1.4489,1.4417,1.4409,1.4506,1.4507,1.4508,0,1.4457,1.445,1.4432,1.4433,1.4446,1.4437,1.4441,1.4447,1.4444,1.4443,1.4441,1.4437,1.4435,1.4431,1.4446,1.4464,1.4423,1.4451,1.4427,1.4427,1.4416,1.4416,1.4341,1.4415,1.4415,1.4415,1.4416,0,1.4399,1.438,1.4408,1.4396,1.4376,1.4398,1.4377,1.4385,1.439,1.438,1.4404,1.4393,1.4415,1.4407,1.4418,1.4399,1.4398,1.4402,1.4405,1.4399,1.4398,1.4395,1.4399,1.4414,1.4414,1.4414,1.4415,0,1.4332,1.435,1.4332,1.4346,1.435,1.4334,1.4346,1.4335,1.4347,1.4334,1.4332,1.4348,1.434,1.4355,1.4348,1.4356,1.4329,1.4337,1.4328,1.433,1.4305,1.4307,1.4224,1.4214,1.4296,1.4295,1.4295,0,1.4293,1.428,1.4293,1.4289,1.4293,1.4286,1.4284,1.4305,1.4301,1.4306,1.4294,1.4289,1.4285,1.427,1.4281,1.4276,1.4284,1.4255,1.4283,1.4277,1.4282,1.4282,1.4281,1.4249,1.4248,1.4247,1.4246,0,1.4222,1.4232,1.4228,1.4228,1.4225,1.4225,1.4227,1.4222,1.4244,1.4239,1.4232,1.4229,1.4223,1.4216,1.4214,1.4218,1.4235,1.4238,1.4232,1.4225,1.422,1.4222,1.4311,1.4239,1.424,1.4241,1.4241,1.4241,1.4168,1.4157,1.4165,1.416,1.4164,1.4166,1.4157,1.4168,1.4162,1.416,1.4173,1.4163,1.4168,1.4167,1.4169,1.416,1.4173,1.4164,1.4162,1.4159,1.4155,1.4223,1.416,1.416,1.416,1.4161,1.4161,0,1.4097,1.4104,1.41,1.4102,1.4098,1.4118,1.4121,1.4116,1.4107,1.4111,1.4107,1.4099,1.4093,1.4104,1.4099,1.4091,1.4098,1.4089,1.4089,1.4089,1.4145,1.415,1.4082,1.4082,1.4082,1.4082,1.4082,1.4082,1.406,1.4043,1.4054,1.4039,1.4046,1.4037,1.4037,1.4038,1.4042,1.4032,1.4028,1.4035,1.4042,1.4038,1.4033,1.4037,1.4033,1.402,1.4026,1.4077,1.4085,1.4092,1.4097,1.402,1.402,1.3971,1.3971,1.3971]}]]